Weather History for Tucson, AZ

Change the Weather History Date:

Wednesday, January 29, 2014

  Actual Average Record
Temperature  
Mean Temperature 58 °F 54 °F  
Max Temperature 75 °F 67 °F 82 °F (1986)
Min Temperature 40 °F 41 °F 19 °F (1932)
Degree Days  
Heating Degree Days 7 11  
Month to date heating degree days 229 360  
Since 1 July heating degree days 694 971  
Cooling Degree Days 0 0  
Month to date cooling degree days 0 0  
Year to date cooling degree days 0 0  
Growing Degree Days 7 (Base 50)    
Moisture  
Dew Point 19 °F    
Average Humidity 26    
Maximum Humidity 43    
Minimum Humidity 9    
Precipitation  
Precipitation 0.00 in 0.03 in 0.93 in (1936)
Month to date precipitation T 0.87  
Year to date precipitation T 0.87  
Sea Level Pressure  
Sea Level Pressure 30.00 in    
Wind  
Wind Speed 6 mph (SSE)    
Max Wind Speed 12 mph    
Max Gust Speed 16 mph    
Visibility 10 miles    
Events      
T = Trace of Precipitation, MM = Missing Value Source: NWS Daily Summary

Daily Weather History Graph

Daily Weather History Graph

Search for Another Location

Airport:

Trip Planner

Search our weather history database for the weather conditions in past years. The results will help you decide how hot, cold, wet, or windy it might be!

Date:

Astronomy

Jan. 29, 2014 Rise Set
Actual Time 7:19 AM MST 5:54 PM MST
Civil Twilight 6:53 AM MST 6:20 PM MST
Nautical Twilight 6:24 AM MST 6:50 PM MST
Astronomical Twilight 5:55 AM MST 7:19 PM MST
Moon 5:58 AM MST (1/29) 4:58 PM MST (1/29)
Length of Visible Light 11h 27m
Length of Day
10h 35m
Waning Crescent, 2% of the Moon is Illuminated
Jan 29
Waning Crescent
Jan 30
New
Feb 6
First Quarter
Feb 14
Full
Feb 22
Last Quarter

Hourly Weather History & Observations

Time (MST) Temp. Windchill Dew Point Humidity Pressure Visibility Wind Dir Wind Speed Gust Speed Precip Events Conditions
12:53 AM 48.0 °F - 23.0 °F 37% 30.04 in 10.0 mi ESE 3.5 mph - N/A   Clear
1:53 AM 45.0 °F 40.6 °F 23.0 °F 42% 30.04 in 10.0 mi SE 8.1 mph - N/A   Clear
2:53 AM 44.1 °F 39.5 °F 21.9 °F 42% 30.04 in 10.0 mi SE 8.1 mph - N/A   Clear
3:53 AM 43.0 °F 38.2 °F 21.9 °F 43% 30.05 in 10.0 mi SE 8.1 mph - N/A   Clear
4:53 AM 44.1 °F 38.6 °F 21.0 °F 40% 30.02 in 10.0 mi SSE 10.4 mph - N/A   Clear
5:53 AM 43.0 °F 37.7 °F 21.0 °F 42% 30.04 in 10.0 mi SE 9.2 mph - N/A   Clear
6:53 AM 42.1 °F 40.2 °F 21.0 °F 43% 30.06 in 10.0 mi SSE 3.5 mph - N/A   Clear
7:53 AM 42.1 °F 37.1 °F 19.9 °F 41% 30.07 in 10.0 mi SSE 8.1 mph - N/A   Clear
8:53 AM 46.9 °F - 19.9 °F 34% 30.08 in 10.0 mi SSE 10.4 mph - N/A   Clear
9:53 AM 55.9 °F - 21.9 °F 27% 30.08 in 10.0 mi SSE 6.9 mph - N/A   Clear
10:53 AM 60.1 °F - 21.0 °F 22% 30.07 in 10.0 mi South 4.6 mph - N/A   Clear
11:53 AM 64.9 °F - 19.9 °F 18% 30.03 in 10.0 mi Calm Calm - N/A   Clear
12:53 PM 69.1 °F - 17.1 °F 14% 29.99 in 10.0 mi Calm Calm - N/A   Clear
1:53 PM 72.0 °F - 12.9 °F 10% 29.97 in 10.0 mi WNW 3.5 mph - N/A   Clear
2:53 PM 73.0 °F - 12.0 °F 10% 29.94 in 10.0 mi WNW 3.5 mph - N/A   Clear
3:53 PM 73.0 °F - 12.0 °F 10% 29.93 in 10.0 mi West 4.6 mph - N/A   Clear
4:53 PM 72.0 °F - 14.0 °F 11% 29.92 in 10.0 mi WSW 6.9 mph - N/A   Clear
5:53 PM 70.0 °F - 16.0 °F 13% 29.94 in 10.0 mi NNW 6.9 mph - N/A   Clear
6:53 PM 66.0 °F - 17.1 °F 15% 29.96 in 10.0 mi Calm Calm - N/A   Clear
7:53 PM 63.0 °F - 17.1 °F 17% 29.96 in 10.0 mi ENE 3.5 mph - N/A   Clear
8:53 PM 57.9 °F - 17.1 °F 20% 29.96 in 10.0 mi South 5.8 mph - N/A   Clear
9:53 PM 54.0 °F - 19.9 °F 26% 29.95 in 10.0 mi SE 6.9 mph - N/A   Clear
10:53 PM 53.1 °F - 18.0 °F 25% 29.96 in 10.0 mi SE 8.1 mph - N/A   Clear
11:53 PM 52.0 °F - 17.1 °F 25% 29.94 in 10.0 mi SE 6.9 mph - N/A   Clear